ATLAS 5 CENTAUR DEB, 50214

Orbit data source: Space-Track

ATLAS 5 CENTAUR DEB, 50214 is space debris in GEO originally from a launch on Tue, 07 Dec 2021 UTC launched from the Air Force Eastern Test Range (AFETR). Debris objects in space refer to the collection of defunct objects orbiting the Earth. Examples of debris include non-operational satellites, rocket bodies, and fragments generated from explosions, collisions, or faulty payload assembly.

Not visible in the next 10 days
Identifier
50214, 2021-118D
Orbit
GEO
Country
Flag of USUS
Related business
Manufacturer
NGIS/HARRL3?
Mission
Spacecraft
Bus & Motor
ESPASAT, Unknown motor
Mass
~100 kg wet, 80 kg dry
Launch date (UTC)
2021-12-07 (4 years ago)
Launch vehicle
Unknown
Launch site
Air Force Eastern Test Range (AFETR)
Object type
Payload
Rocket body
Debris
Shape & HBR
Unknown shape, 1.1 m
Radar Cross Section
0.600 m², Large (>1 m²)

Expand to show TLE details & history
Last TLE update: 2 days ago

TLE from 2 days ago
0 ATLAS 5 CENTAUR DEB
1 50214U 21118D   25348.05414958 -.00000227  00000-0  00000-0 0  9995
2 50214   3.8359  79.7895 0011461  56.0907 303.7156  0.99332286 14582
Epoch: 2025-12-14T01:17Z
TLE epoch observation values (Epoch: 2025-12-14T01:17:58.523Z)
Latitude
-0.00001°
Longitude
-22.98477°
Altitude
36,024.492 km
Speed
3.067 km/s
True Right ascension
05h 17m 55s
True Declination
0° 00' 00"
Sunlit
Object was in daylight at epoch
Visualization orbit readout
Latitude
Unknown
Longitude
Unknown
Altitude
Unknown
Speed
Unknown
Apparent Right ascension
Unknown
Apparent Declination
Unknown
Sunlit
N/A
Visualization observer readout
Local Sidereal Time
13:24:34
Azimuth
Unknown
Elevation
Unknown
Doppler factor
Unknown
Orbital elements
Apogee altitude
36,101.732 km
Perigee altitude
36,004.471 km
Semi-major axis
42,431.238 km
Eccentricity
0.00115
Inclination
3.8359°
RAAN
79.7895°
Arg. of periapsis
56.0907°
True anomaly
303.60627°
Mean anomaly
303.7156°
Eccentric anomaly
303.66094°
Mean motion
0.24832 °/min
Orbital period
1,449.73 mins
BSTAR
0
Loading maneuver chart data...
Computing Atmospheric mass density...
Loading historical data...
Loading historical data...
Loading historical data...
Loading historical data...
Loading historical data...
Loading historical data...
Loading historical data...
Other satellites on launch #118 in the year 2021 (2021-12-07 UTC)

Documentation

Showing up to 5 results
|